Flag for U.S.A. Weather past 2 weeks in Carrollton, Texas, U.S.A.

Now
97 °F

Scattered clouds.


Feels Like: 99 °F
Forecast: 83 / 100 °F
Wind: 12 mph from South

Location: Dallas Love Field

Current Time: Aug 4, 2015 at 7:19:11 PM

Latest Report: Aug 4, 2015 at 6:53 PM


Visibility: 10 mi

Pressure: 29.84 "Hg

Humidity: 33%

Dew point: 63 °F

Location of CarrolltonLocation

Historic Weather in Carrollton — Graph

°F

Carrollton temperature yesterday

Maximum temperature yesterday: 100 °F (at 4:53 PM)
Minimum temperature yesterday: 78 °F (at 6:53 AM)
Average temperature yesterday: 90 °F

Past Weeks' High & Low Weather Summary

 TemperatureHumidityPressure
High103 °F (Jul 30, 4:53 PM)72% (Jul 23, 6:53 AM)30.07 "Hg (Jul 23, 6:53 AM)
Low78 °F (Aug 3, 6:53 AM)23% (Aug 1, 5:53 PM)29.77 "Hg (Jul 21, 6:53 PM)
Average90 °F45%29.91 "Hg
* Reported Jul 20 5:53 PM — Aug 4 5:53 PM, Carrollton, Weather by CustomWeather, © 2015

Note: Actual official high and low records may vary slightly from our data, if they occured in-between our weather recording intervals... More about our weather records

Advertising

Carrollton weather history for previous 24 hours

 ConditionsComfort  
Time TempWeatherWind HumidityBarometerVisibility
5:53 PM
Tue, Aug 4
98 °FScattered clouds.12 mph31%29.85 "Hg10 mi
4:53 PM98 °FScattered clouds.7 mph29%29.86 "Hg10 mi
3:53 PM97 °FBroken clouds.7 mph30%29.87 "Hg10 mi
2:53 PM99 °FScattered clouds.15 mph30%29.88 "Hg10 mi
1:53 PM98 °FScattered clouds.13 mph32%29.90 "Hg10 mi
12:53 PM97 °FScattered clouds.14 mph34%29.93 "Hg10 mi
11:53 AM95 °FScattered clouds.16 mph39%29.94 "Hg10 mi
10:53 AM91 °FBroken clouds.8 mph49%29.95 "Hg10 mi
9:53 AM87 °FPartly sunny.3 mph57%29.94 "Hg10 mi
8:53 AM85 °FPartly sunny.5 mph59%29.93 "Hg10 mi
7:53 AM83 °FBroken clouds.6 mph61%29.92 "Hg10 mi
6:53 AM83 °FPartly cloudy.6 mph57%29.91 "Hg10 mi
5:53 AM83 °FPartly cloudy.7 mph53%29.89 "Hg10 mi
4:53 AM83 °FPartly cloudy.5 mph51%29.88 "Hg10 mi
3:53 AM84 °FPassing clouds.8 mph46%29.87 "Hg10 mi
2:53 AM86 °FPassing clouds.9 mph43%29.87 "Hg10 mi
1:53 AM87 °FPassing clouds.9 mph42%29.87 "Hg10 mi
12:53 AM88 °FPassing clouds.9 mph42%29.87 "Hg10 mi
11:53 PM
Mon, Aug 3
88 °FPassing clouds.8 mph42%29.86 "Hg10 mi
10:53 PM90 °FPassing clouds.9 mph39%29.87 "Hg10 mi
9:53 PM91 °FPassing clouds.13 mph37%29.85 "Hg10 mi
8:53 PM93 °FPassing clouds.15 mph33%29.84 "Hg10 mi
7:53 PM95 °FPassing clouds.16 mph30%29.83 "Hg10 mi
Weather by CustomWeather, © 2015

See weather overviewHow to use our weather pages